Regional Weather Roundup
Issued by NWS Green Bay, WI

Home | Current Version | Previous Version | Text Only | Print | Product List | Glossary On
Versions: 1 2 3 4 5 6 7 8 9 10 11 12 13 14 15 16 17 18 19 20 21 22 23 24 25 26 27 28 29 30 31 32 33 34 35 36 37 38 39 40 41 42 43 44 45 46 47 48 49 50
300
ASUS43 KGRB 220110
RWRGRB

NORTH-CENTRAL AND NORTHEAST WISCONSIN REGIONAL WEATHER ROUNDUP
NATIONAL WEATHER SERVICE GREEN BAY WI
700 PM CST SAT JAN 21 2017

WIZ005-009-010>012-018-019-220200-
NORTH CENTRAL WISCONSIN

CITY           SKY/WX    TMP DP  RH WIND       PRES   REMARKS
IRONWOOD       LGT RAIN  36  34  93 CALM      29.48S VSB 1
MANITOWISH WTR DRIZZLE   35  35 100 E3        29.47R
ARBOR VITAE    DRIZZLE   37  36  96 SE5       29.47S
EAGLE RIVER    RAIN      34  34 100 CALM      29.48R
LAND O LAKES   MIX PCPN  35  35 100 SE3       29.49S
RHINELANDER    FOG       35  35 100 CALM      29.48R VSB 1/2
PHILLIPS       FOG       35  35 100 CALM      29.46R VSB 3/4
ANTIGO         FOG       33  33 100 CALM      29.49R VSB 3/4
TOMAHAWK       CLOUDY    35  34  96 CALM      29.48R FOG
MERRILL        CLOUDY    36  36 100 CALM        N/A  FOG
$$

WIZ013-073-220200-
NORTHEAST WISCONSIN

CITY           SKY/WX    TMP DP  RH WIND       PRES   REMARKS
IRON MOUNTAIN  CLOUDY    35  33  92 N3        29.48R FOG
MARINETTE      NOT AVBL
OCONTO         CLOUDY    34  34  99 CALM      29.50R VSB 1/4
$$

WIZ017-030-035>037-045-220200-
CENTRAL WISCONSIN

CITY           SKY/WX    TMP DP  RH WIND       PRES   REMARKS
MEDFORD        FOG       34  34  99 CALM      29.47R VSB 1/2
WAUSAU         FOG       35  35 100 CALM      29.48R VSB 3/4
MOSINEE        FOG       34  34 100 SE3       29.50R VSB 1/4
MARSHFIELD     FOG       35  35 100 CALM      29.47R VSB 1/4
WISC RAPIDS    FOG       37  37 100 S3        29.51R VSB 1/2
STEVENS POINT  FOG       33  33 100 CALM      29.51R VSB 1/2
WAUPACA        FOG       37  36  96 CALM      29.52R VSB 1/2
SHAWANO        CLOUDY    37  36  96 CALM      29.51R FOG
CLINTONVILLE   FOG       34  34 100 CALM      29.51R VSB 3/4
WAUTOMA        FOG       35  35 100 CALM      29.52S VSB 1/2
$$

WIZ038-039-048-051-220200-
FOX VALLEY

CITY           SKY/WX    TMP DP  RH WIND       PRES   REMARKS
NWS GREEN BAY  FOG       36  36 100 CALM      29.51R VSB 1/4
APPLETON       FOG       37  37 100 SW6       29.50R VSB 1/4
OSHKOSH        FOG       40  40 100 CALM      29.51S VSB 1/4
FOND DU LAC    CLOUDY    42  39  89 SW5       29.53R FOG
$$

WIZ022-050-052-220200-
EAST CENTRAL WISCONSIN

CITY           SKY/WX    TMP DP  RH WIND       PRES   REMARKS
EPHRAIM        FOG       39  39 100 S5        29.49R VSB 1/4
WASHINGTON ISL CLOUDY    39  39  99 SE7       29.50S FOG
STURGEON BAY   FOG       39  39 100 S5        29.51R VSB 1/2
MANITOWOC      CLOUDY    41  40  96 SW7       29.53R
SHEBOYGAN      CLOUDY    40  38  93 SW7       29.53R FOG
$$

LMZ563-521-522-541>543-220200-
LAKESHORE

STATION/POSITION TIME  TEMP    WIND        PRES    VSBY  WAVE
                       AIR SEA DIR/SP/G                  HT/PER
                 (UTC) (F)     (DEG/KT/KT) (MB)    (MI)  (FT/S)
SHEBOYGAN LKSHOR 0100   42     250/  7/  9 1000.1R
KEWAUNEE LKSHORE 0048   35     180/  7/  7  999.2R
NORTHPORT PIER   0040   38     150/  5/  7  999.7R
SISTER BAY LKSHO 0035   41     130/  8/ 10   N/A
MENOMINEE LKSHOR 0048          330/  5/  5  998.4R
$$




USA.gov is the U.S. government's official web portal to all federal, state and local government web resources and services.